Location: Douarnenez-Tr�boul
(48.1000°N, 4.3500°W)
Time: 02:57:14
(UTC+00:00)

Daily predictions for brighter satellites

Satellite Brightness Start Highest point End
(mag) Time Altitude Azimuth Time Altitude Azimuth Time Altitude Azimuth
ATLAS 3B R/B 4.5 02:13:09 23° N 02:13:49 23° NNE 02:19:03 10° ENE
Cosmos 2322 Rocket 4.4 02:20:05 20° NE 02:20:05 20° NE 02:21:50 10° NE
CENTAUR R/B 4.5 02:24:25 24° NNW 02:27:23 31° NNE 02:34:35 10° E
Cosmos 2360 Rocket 4.3 02:30:10 23° ENE 02:30:10 23° ENE 02:32:41 10° NE
Cosmos 1980 Rocket 4.4 02:37:05 18° N 02:37:05 18° N 02:38:36 10° NNE
Cosmos 2278 Rocket 4.3 02:59:23 10° N 03:03:51 23° NE 03:08:18 10° E
Cosmos 2333 Rocket 4.1 03:06:30 22° ESE 03:07:44 23° ESE 03:12:06 10° NE
USA 267 3.4 03:08:46 10° NE 03:14:41 69° E 03:14:41 69° E
CZ-2D R/B 4.4 03:13:51 10° N 03:14:36 14° N 03:14:36 14° N
ADEOS II 3.7 03:13:35 10° NNE 03:15:59 28° N 03:15:59 28° N
ARIANE 5 R/B 4.2 03:22:46 10° N 03:24:45 24° N 03:24:45 24° N
SL-16 R/B 3.5 03:30:47 32° N 03:30:47 32° N 03:34:05 10° NNE
Cosmos 2322 4.1 03:31:45 59° E 03:31:45 59° E 03:37:08 10° NE
Lacrosse 4 Rocket 4.2 03:37:16 11° N 03:37:16 11° N 03:37:27 10° N
Cosmos 1709 Rocket 4.4 03:35:59 36° SSE 03:38:28 59° E 03:44:41 10° NNE
Cosmos 2219 Rocket 3.3 03:38:52 33° SE 03:40:22 40° ESE 03:45:33 10° NE
Cosmos 2237 4.4 03:46:00 65° N 03:46:00 65° N 03:50:58 10° NNE
SL-08 ROCKET BODY 4.3 03:45:28 86° ENE 03:45:28 86° ENE 03:51:23 10° N
USA 234 3.1 03:43:45 10° SE 03:50:18 75° SW 03:50:49 71° WSW
Meteor 2-21 Rocket 4.4 03:49:55 69° S 03:50:45 87° E 03:57:00 10° N
IDEFIX/ARIANE 42P 3.1 03:48:44 10° NNE 03:53:55 55° E 03:55:58 34° SSE
Meteor 2-14 Rocket 4.3 03:54:39 78° WSW 03:54:50 79° W 04:01:02 10° N
Cosmos 44 4.5 03:55:54 29° N 03:57:03 34° NE 04:01:01 10° ESE
COSMOS 2428 3.2 03:56:23 38° SSE 03:58:15 55° ESE 04:03:48 10° NE
Cosmos 2322 Rocket 3.3 04:01:54 29° NNW 04:01:54 29° NNW 04:05:43 10° NNE
H-2A R/B 3.9 03:58:48 10° NNE 04:02:38 36° E 04:04:58 20° SSE
Cosmos 1745 Rocket 4.2 04:06:04 50° NW 04:06:04 50° NW 04:11:28 10° N
ATLAS 3B R/B 3.4 04:00:26 14° NNW 04:06:04 51° NE 04:12:41 10° ESE
Cosmos 2360 Rocket 2.6 04:11:57 47° NW 04:11:57 47° NW 04:17:02 10° NNE
Cosmos 1842 3.8 04:11:45 58° E 04:11:46 58° E 04:15:39 10° NNE
Cosmos 2251 Rocket 3.4 04:12:41 72° WSW 04:13:08 78° WNW 04:18:33 10° NNE
Meteor 2-16 Rocket 4.3 04:13:40 47° SSW 04:15:31 75° W 04:21:38 10° N
COSMOS 2455 2.7 04:14:56 59° WSW 04:15:58 72° NW 04:22:02 10° NNE
Cosmos 1980 Rocket 4.3 04:18:51 12° NNW 04:18:56 12° NNW 04:20:57 10° N
PSLV R/B 3.4 04:15:07 10° NNE 04:19:23 86° ESE 04:19:29 85° SSE
Cosmos 2098 Rocket 4.5 04:17:42 45° WSW 04:19:24 53° WNW 04:26:38 10° N
CENTAUR R/B 3.4 04:11:42 10° NW 04:19:31 68° NE 04:28:08 10° SE
Cosmos 2181 Rocket 3.9 04:13:43 10° N 04:20:08 83° W 04:26:25 10° S
Cosmos 1025 Rocket 3.4 04:20:29 26° SSE 04:22:45 62° E 04:26:59 10° NNE
NOSS 2-2 (C) 3.3 04:25:19 72° SE 04:25:24 72° SE 04:29:34 10° NE
ATLAS 2AS CENTAUR R/B 3.5 04:19:17 14° SSW 04:26:11 60° ESE 04:34:05 10° NE
USA 238 DEB 3.8 04:24:44 26° NW 04:29:00 62° WSW 04:36:16 10° SSE
USA 238 3.8 04:24:48 25° NW 04:29:07 62° WSW 04:36:22 10° SSE
Cosmos 921 Rocket 2.9 04:27:16 10° NNW 04:31:39 83° ENE 04:35:53 10° SSE
Gblst 52 Del rocket 4.4 04:30:25 40° WNW 04:32:17 62° N 04:38:00 10° E
Cosmos 1536 Rocket 3.3 04:37:01 37° SSW 04:38:39 79° W 04:43:01 10° N
COSMOS 2441 4.3 04:41:26 10° NNE 04:46:24 87° W 04:51:18 10° SSW
Aureole 1 Rocket 3.7 04:42:41 23° SW 04:46:47 67° WNW 04:51:46 10° NNE
Intercosmos 25 4.5 04:42:14 10° NNW 04:46:47 51° W 04:54:05 10° S
ADEOS 3.6 04:42:10 10° N 04:47:18 57° WNW 04:50:04 26° SW
CZ-4B R/B 3.7 04:43:29 10° NNE 04:47:32 52° E 04:51:19 10° S
Meteor 1-22 Rocket 4.4 04:42:49 10° NNW 04:47:49 40° W 04:52:43 10° SSW
Cosmos 2278 Rocket 2.1 04:42:55 10° NNW 04:48:38 81° WSW 04:54:18 10° SSE
Cosmos 407 Rocket 4.1 04:45:43 10° S 04:50:44 58° ESE 04:55:47 10° NNE
Cosmos 2333 Rocket 2.2 04:48:34 29° SW 04:51:30 64° WNW 04:57:11 10° NNE
BREEZE-M R/B 4.1 04:51:35 34° W 04:54:07 85° N 05:04:45 10° E
NOSS 3-2 (A) 4.2 04:48:30 13° NW 04:55:08 53° WSW 05:03:11 10° SSE
ERBS 2.9 04:55:24 31° SSW 04:56:40 52° SE 04:59:58 10° ENE
Meteor 1-4 Rocket 4.1 04:53:35 10° SSE 04:56:50 36° E 05:00:04 10° NNE
ADEOS II 3.9 04:55:01 10° NNW 04:56:54 14° NW 04:56:54 14° NW
Meteor 1-21 4.1 04:52:16 10° SSW 04:57:49 71° WNW 05:03:28 10° N
USA 267 3.6 04:51:54 10° NE 04:58:13 53° NNW 05:02:02 24° W
Cosmos 1378 4.2 05:01:11 28° NW 05:01:11 28° NW 05:03:46 10° N
NOSS 2-2 (E) 3.6 05:00:27 38° W 05:01:27 48° NW 05:05:46 10° NE
USA 32 3.9 04:57:03 10° SSW 05:02:16 69° W 05:07:31 10° N
MSX 3.8 04:57:37 10° N 05:03:17 63° WNW 05:08:56 10° SSW
Cosmos 1953 2.3 05:02:11 10° N 05:06:16 83° E 05:10:17 10° S
CZ-2C R/B 2.4 05:02:45 10° NNE 05:07:58 79° WNW 05:13:08 10° SSW
Cosmos 1606 Rocket 3.7 05:05:16 10° N 05:09:36 76° E 05:13:55 10° SSE
COBE Rocket 4.4 05:05:06 10° SSE 05:10:04 67° ENE 05:15:11 10° N
Cosmos 1758 3.5 05:09:18 10° NNW 05:13:09 47° W 05:17:01 10° SSW
SL-16 R/B 4.1 05:12:39 12° NW 05:14:15 13° NNW 05:16:46 10° N
Cosmos 2154 Rocket 4.2 05:09:45 10° S 05:15:55 78° E 05:22:09 10° NNE
NOSS 3-2 (C) 4.2 05:10:26 10° NW 05:17:47 56° WSW 05:25:55 10° SSE
Cosmos 2327 Rocket 4.4 05:12:07 10° S 05:18:23 85° W 05:24:35 10° N
ALOS 4.0 05:15:30 10° NNE 05:19:49 35° E 05:24:05 10° SSE
Okean 1-7 Rocket 4.4 05:16:40 10° S 05:20:59 55° E 05:25:24 10° NNE
Cosmos 389 Rocket 2.3 05:20:23 10° SSW 05:23:46 68° WNW 05:27:13 10° N
Cosmos 2219 Rocket 2.7 05:20:39 18° WSW 05:24:21 38° NW 05:29:35 10° NNE
Cosmos 2184 Rocket 4.0 05:19:49 10° SSW 05:25:55 59° WNW 05:32:09 10° N
Cosmos 1610 Rocket 4.5 05:19:56 10° S 05:26:12 83° W 05:32:36 10° N
Cosmos 2237 Rocket 2.2 05:25:29 10° SSW 05:31:10 75° WNW 05:36:54 10° NNE
RESURS DK-1 4.0 05:27:38 10° S 05:31:27 38° ESE 05:35:18 10° NE
IDEFIX/ARIANE 42P 3.6 05:28:57 10° N 05:33:10 25° WNW 05:36:45 13° WSW
CZ-4B R/B 4.0 05:29:30 10° N 05:33:16 48° WNW 05:37:10 10° SW
USA 234 4.3 05:28:58 10° S 05:34:01 23° SW 05:38:11 13° W
NOSS 3 (A) 4.3 05:31:41 13° SW 05:34:01 85° NW 05:37:09 10° NE
Meteor 1-31 Rocket 3.0 05:30:47 10° N 05:34:25 44° WNW 05:38:02 10° SW
Cosmos 1908 4.4 05:31:25 10° N 05:35:09 45° ENE 05:38:49 10° SSE
Nadezhda 3 Rocket 4.0 05:28:53 10° NNW 05:35:14 70° W 05:41:32 10° S
Meteor PRIRODA 3.6 05:32:35 10° N 05:36:18 63° WNW 05:40:00 10° SSW
NOSS 3-4 (A) 3.4 05:30:17 10° SW 05:36:21 86° NW 05:42:49 10° NE
NOSS 3-4 (C) 3.4 05:30:22 10° SW 05:36:25 86° NW 05:42:55 10° NE
COSMO-SKYMED 1 2.5 05:32:19 10° S 05:36:39 74° WSW 05:41:01 10° NNW
Cosmos 44 Rocket 3.8 05:32:09 10° NNW 05:36:52 59° NE 05:41:29 10° SE
H-2A R/B 3.5 05:34:39 10° N 05:38:00 25° WNW 05:41:25 10° WSW
Cosmos 44 3.6 05:34:22 11° NW 05:38:14 36° WSW 05:42:11 10° S
PAYLOAD A 4.5 05:33:55 10° N 05:38:16 36° WNW 05:42:44 10° SW
Cosmos 2341 Rocket 4.4 05:32:08 10° S 05:38:19 69° E 05:44:31 10° NNE
Cosmos 1140 Rocket 3.4 05:34:25 10° SSW 05:39:36 82° WNW 05:44:49 10° NNE
NOSS 2-2 (D) 4.3 05:37:12 16° W 05:39:37 31° NW 05:43:38 10° NNE
USA 116 3.6 05:36:24 10° SSE 05:40:17 81° ENE 05:43:47 10° NNW
In-Cosmos 22 4.2 05:37:18 10° S 05:42:38 83° E 05:48:07 10° NNE
COSMOS 2428 3.6 05:38:27 13° WSW 05:42:50 31° NW 05:47:51 10° NNE
Cosmos 1470 3.9 05:39:50 10° NW 05:42:58 23° W 05:46:03 10° SW
Cosmos 2369 Rocket 3.8 05:40:41 10° NNW 05:45:46 34° NE 05:50:49 10° ESE
Cosmos 614 Rocket 4.2 05:41:41 10° SW 05:46:47 52° WNW 05:51:54 10° NNE
Cosmos 1707 3.3 05:44:17 10° SW 05:47:55 36° WNW 05:51:34 10° N
Cosmos 1980 3.8 05:42:25 10° SW 05:47:57 55° WNW 05:53:32 10° NNE
CZ-4B R/B 3.7 05:45:39 10° NNE 05:50:57 64° ESE 05:56:11 10° S
Cosmos 1726 Rocket 3.7 05:47:05 10° NNW 05:51:16 49° W 05:55:25 10° SSW
Cosmos 1484 Rocket 2.7 05:48:01 10° N 05:51:46 62° WNW 05:55:31 10° SSW
Cosmos 1356 3.5 05:49:02 10° NNW 05:52:25 52° W 05:55:47 10° S
Okean O Rocket 1.9 05:48:54 10° NNE 05:53:21 73° ESE 05:57:43 10° S
ATLAS 3B R/B 3.0 05:50:25 10° NW 05:56:43 45° WSW 06:03:10 10° S
Cosmos 2360 Rocket 4.1 05:54:30 10° WNW 05:57:04 13° NNW 05:59:39 10° N
ASTEX 1 4.0 05:53:56 10° SSE 05:58:44 63° E 06:03:35 10° N
Cosmos 2228 3.4 05:54:47 10° NNW 05:58:46 38° W 06:02:42 10° SSW
Meteor 2-10 4.0 05:54:30 10° NNW 05:59:36 63° W 06:04:50 10° S
NOSS 0 Rocket 4.3 05:56:20 10° WSW 06:02:10 44° NW 06:08:06 10° NNE
COSMOS 2455 4.2 05:58:24 10° W 06:02:58 22° NNW 06:07:34 10° NNE
Cosmos 2058 Rocket 3.2 06:00:53 10° NNW 06:05:11 54° W 06:09:29 10° S
Meteor 1-24 Rocket 4.5 06:00:44 10° S 06:06:20 62° E 06:12:12 10° NNE
NOAA 6 4.2 06:03:51 10° NNE 06:09:04 87° ESE 06:14:14 10° SSW
CENTAUR R/B 3.7 06:02:44 10° NW 06:10:07 40° WSW 06:18:00 10° S
